Dewpoint
59 59 59 59 59 59 59 59 60 60 60 60 60 61 62 62 62 62 62 62 62 62 61 61 60 60 59 58 58 57 56 56 56 55 54 53 50 50 49 47 45 44
60 59 58 59 59 59 59 59 59 60 60 60 60 61 61 62 62 62 62 62 61 61 60 60 60 58 57 57 56 56 55 54 53 52 52 49 49 49 48 46 44 41
60 59 59 58 59 59 59 59 60 60 60 60 60 61 61 61 62 62 62 61 61 60 60 59 58 57 56 56 55 54 53 52 51 51 50 48 48 48 46 45 42 39
59 59 59 59 58 58 59 59 60 60 60 59 60 60 61 61 61 61 61 58 60 59 59 57 56 56 56 55 54 52 51 50 50 50 49 47 47 46 45 43 39 37
58 58 59 59 59 58 59 59 59 59 60 60 59 59 60 60 60 60 60 59 58 57 57 56 56 55 54 54 51 50 50 49 49 49 48 45 44 44 42 40 38 36
57 58 58 58 58 58 58 59 59 59 59 59 59 59 59 59 59 59 58 56 54 55 55 54 54 53 53 51 50 50 49 47 46 46 44 43 41 41 40 38 36 34
57 57 57 58 57 58 58 58 58 58 59 58 57 58 59 58 58 58 57 56 53 52 53 53 53 51 50 49 49 48 46 44 43 42 41 39 39 38 37 36 33 32
56 56 57 57 57 57 57 57 58 58 58 55 56 56 57 57 57 57 55 54 53 52 51 51 52 51 49 49 48 45 42 43 42 40 39 37 37 36 35 34 32 31
53 54 55 54 55 55 55 55 56 56 56 55 55 54 55 56 55 54 53 52 52 51 51 50 50 49 48 48 46 44 41 41 40 38 37 36 35 34 33 32 31 30
51 51 51 51 52 52 52 51 53 55 55 55 55 54 54 53 54 53 52 51 50 49 49 49 48 46 45 45 44 42 40 40 38 36 35 34 33 32 32 30 29 29
48 48 50 51 52 51 51 50 52 53 53 55 54 53 53 52 51 50 50 49 49 48 48 47 46 44 43 42 41 40 40 39 37 34 32 32 31 31 31 28 28 29
49 50 52 53 53 52 52 51 51 52 52 52 53 53 51 50 50 48 48 48 47 47 46 45 43 42 41 41 39 39 38 36 34 31 30 29 30 30 28 27 27 29
49 50 51 52 52 52 50 51 51 50 51 51 50 51 50 48 47 47 46 47 46 46 45 43 42 41 41 39 38 37 35 33 31 29 28 29 29 29 28 27 28 28
46 46 46 48 48 48 49 48 48 47 48 46 45 49 48 47 46 46 45 45 46 45 44 42 41 40 39 38 37 36 34 31 29 28 28 28 28 28 28 27 28 28
45 44 43 43 43 44 44 44 44 43 42 42 42 43 45 45 45 45 43 43 42 41 41 41 41 40 38 36 34 32 31 29 28 27 27 27 27 27 27 27 27 28
42 41 40 40 41 41 39 39 39 39 39 39 40 40 40 41 41 42 42 42 42 40 39 40 40 39 35 35 34 31 29 28 27 26 26 26 26 26 26 26 27 27
40 38 38 38 39 38 37 38 39 39 39 39 39 40 40 40 40 41 41 40 40 40 40 39 39 36 34 35 35 33 28 26 25 25 25 25 24 24 24 25 26 26
38 38 38 37 37 38 38 37 37 37 38 38 38 38 39 39 40 40 40 39 39 37 37 37 36 34 35 35 34 33 30 25 24 24 24 23 22 23 23 24 24 25
37 37 37 37 37 37 36 37 37 37 37 37 38 38 37 39 39 38 38 38 38 38 38 37 35 34 36 35 34 33 31 26 23 23 22 22 21 22 22 22 23 24
37 37 37 36 36 36 36 36 36 37 36 36 36 36 37 37 36 37 37 36 37 36 36 34 32 34 35 35 33 32 31 27 22 22 21 20 20 21 21 21 22 22
37 36 36 35 35 35 35 35 36 36 36 36 36 36 37 37 36 36 36 35 35 35 34 33 31 34 35 34 33 32 34 27 22 22 20 20 20 19 20 20 20 21
36 36 36 35 35 35 35 35 35 35 35 35 35 35 35 35 34 35 34 34 34 33 33 32 31 34 34 33 33 33 32 25 22 20 20 19 19 18 18 19 19 20
36 36 35 35 34 34 34 35 35 34 34 34 34 34 34 34 34 34 34 33 32 31 31 29 30 33 33 33 33 34 29 24 23 22 21 19 18 18 18 18 19 20
37 36 35 34 34 34 34 34 34 34 34 33 34 34 34 33 33 32 32 32 31 31 30 30 31 31 33 33 32 33 27 24 23 22 21 21 19 18 18 18 19 25
36 36 35 34 34 34 34 34 34 33 33 33 33 33 33 32 32 32 31 31 31 31 30 31 31 31 32 32 32 32 27 24 23 22 21 21 20 19 18 18 21 25
36 35 34 34 34 34 34 33 33 32 32 32 32 32 32 31 31 32 31 31 31 30 30 31 31 31 32 33 32 31 29 24 23 21 21 21 20 20 20 21 21 22